Weather History for Provo, UT

Change the Weather History Date:

Wednesday, August 15, 2012

  Actual Average Record
Temperature  
Mean Temperature 75 °F -  
Max Temperature 91 °F 86 °F 94 °F (1992)
Min Temperature 59 °F 57 °F 50 °F (2002)
Cooling Degree Days 10    
Growing Degree Days 25 (Base 50)    
Moisture  
Dew Point 51 °F    
Average Humidity 51    
Maximum Humidity 72    
Minimum Humidity 20    
Precipitation  
Precipitation 0.00 in - - ()
Sea Level Pressure  
Sea Level Pressure 30.02 in    
Wind  
Wind Speed 4 mph (SE)    
Max Wind Speed 17 mph    
Max Gust Speed 29 mph    
Visibility 11 miles    
Events      
Averages and records for this station are not official NWS values.
T = Trace of Precipitation, MM = Missing Value Source: NWS Daily Summary

Daily Weather History Graph

Daily Weather History Graph

Search for Another Location

Airport:

Trip Planner

Search our weather history database for the weather conditions in past years. The results will help you decide how hot, cold, wet, or windy it might be!

Date:

Astronomy

Aug. 15, 2012 Rise Set
Actual Time 6:38 AM MDT 8:23 PM MDT
Civil Twilight 6:09 AM MDT 8:52 PM MDT
Nautical Twilight 5:34 AM MDT 9:27 PM MDT
Astronomical Twilight 4:56 AM MDT 10:04 PM MDT
Moon 4:39 AM MDT (8/15) 6:58 PM MDT (8/15)
Length of Visible Light 14h 42m
Length of Day
13h 44m
Waning Crescent, 4% of the Moon is Illuminated
Aug 15
Waning Crescent
Aug 17
New
Aug 24
First Quarter
Aug 31
Full
Sep 8
Last Quarter

Hourly Weather History & Observations

Time (MDT) Temp. Heat Index Dew Point Humidity Pressure Visibility Wind Dir Wind Speed Gust Speed Precip Events Conditions
12:15 AM 71.6 °F - 48.2 °F 43% 30.03 in 10.0 mi ESE 4.6 mph - N/A   Clear
12:35 AM 68.0 °F - 48.2 °F 49% 30.03 in 10.0 mi Calm Calm - N/A   Clear
12:55 AM 66.2 °F - 51.8 °F 60% 30.03 in 10.0 mi Calm Calm - N/A   Clear
1:35 AM 64.4 °F - 50.0 °F 59% 30.03 in 10.0 mi ESE 3.5 mph - N/A   Clear
1:55 AM 64.4 °F - 51.8 °F 64% 30.02 in 10.0 mi SE 5.8 mph - N/A   Clear
2:15 AM 64.4 °F - 51.8 °F 64% 30.02 in 10.0 mi SE 4.6 mph - N/A   Clear
2:55 AM 64.4 °F - 48.2 °F 56% 30.03 in 10.0 mi SSE 5.8 mph - N/A   Clear
3:15 AM 62.6 °F - 51.8 °F 68% 30.03 in 10.0 mi Calm Calm - N/A   Clear
3:55 AM 66.2 °F - 48.2 °F 52% 30.03 in 10.0 mi South 3.5 mph - N/A   Clear
4:15 AM 64.4 °F - 50.0 °F 59% 30.03 in 10.0 mi SE 6.9 mph - N/A   Clear
4:35 AM 60.8 °F - 50.0 °F 68% 30.03 in 10.0 mi Calm Calm - N/A   Clear
4:55 AM 60.8 °F - 51.8 °F 72% 30.03 in 10.0 mi NNE 3.5 mph - N/A   Clear
5:15 AM 59.0 °F - 50.0 °F 72% 30.03 in 10.0 mi Calm Calm - N/A   Clear
5:35 AM 59.0 °F - 50.0 °F 72% 30.03 in 10.0 mi SE 4.6 mph - N/A   Clear
6:15 AM 62.6 °F - 48.2 °F 59% 30.03 in 10.0 mi SSE 4.6 mph - N/A   Clear
6:35 AM 62.6 °F - 48.2 °F 59% 30.04 in 10.0 mi ESE 8.1 mph - N/A   Clear
6:50 AM 62.6 °F - 50.0 °F 63% 30.05 in 15.0 mi SE 11.5 mph - N/A   Partly Cloudy
8:50 AM 69.8 °F - 51.8 °F 53% 30.06 in 15.0 mi North - - N/A   Partly Cloudy
9:50 AM 73.4 °F - 50.0 °F 44% 30.07 in 15.0 mi Variable 5.8 mph - N/A   Partly Cloudy
10:50 AM 77.0 °F - 50.0 °F 39% 30.07 in 15.0 mi Variable 5.8 mph - N/A   Partly Cloudy
11:50 AM 82.4 °F - 51.8 °F 35% 30.05 in 15.0 mi Variable 5.8 mph - N/A   Partly Cloudy
12:50 PM 84.2 °F 82.8 °F 53.6 °F 35% 30.04 in 15.0 mi Variable 5.8 mph - N/A   Partly Cloudy
1:54 PM 87.8 °F 86.5 °F 57.2 °F 35% 30.02 in - Variable 4.6 mph - N/A   Partly Cloudy
2:55 PM 91.4 °F - 44.6 °F 20% 29.99 in 10.0 mi ESE 6.9 mph - N/A   Partly Cloudy
3:50 PM 86.0 °F 86.1 °F 60.8 °F 43% 29.98 in 10.0 mi West 17.3 mph 28.8 mph N/A   Scattered Clouds
4:49 PM 86.0 °F 84.2 °F 53.6 °F 33% 29.98 in 10.0 mi Variable 4.6 mph - N/A   Scattered Clouds
5:47 PM 87.8 °F - 48.2 °F 25% 29.97 in 10.0 mi East 8.1 mph - N/A   Scattered Clouds
7:54 PM 78.8 °F - 53.6 °F 42% 29.97 in 10.0 mi Calm Calm - N/A   Scattered Clouds
8:47 PM 78.8 °F - 51.8 °F 39% 29.98 in 10.0 mi Calm Calm - N/A   Scattered Clouds
8:55 PM 78.8 °F - 51.8 °F 39% 29.99 in 9.0 mi NE 3.5 mph - N/A   Clear
9:35 PM 71.6 °F - 55.4 °F 57% 30.00 in 5.0 mi South 5.8 mph - N/A   Clear
9:55 PM 73.4 °F - 57.2 °F 57% 30.01 in 10.0 mi SSE 3.5 mph - N/A   Clear
10:55 PM 71.6 °F - 51.8 °F 50% 30.01 in 10.0 mi South 4.6 mph - N/A   Clear
11:15 PM 69.8 °F - 51.8 °F 53% 30.02 in 10.0 mi Calm Calm - N/A   Clear
11:35 PM 68.0 °F - 51.8 °F 56% 30.02 in 10.0 mi Calm Calm - N/A   Clear
11:55 PM 69.8 °F - 51.8 °F 53% 30.03 in 10.0 mi Calm Calm - N/A   Clear